Location: Huisseau
(47.5933°N, 1.4533°E)
Time: 19:20:19
(UTC+00:00)

CENTAUR R/B - Pass Details

Date: 22 November 2025
Orbit: 633 x 1547 km, 63.4° (Epoch: 06 December)

Event Time Altitude Azimuth Distance (km) Brightness Sun altitude
Exits shadow 01:43:10 22° 73° (ENE) 2,709 5.0 -53.0°
Drops below altitude 10° 01:46:41 10° 89° (E) 3,626 5.8 -52.5°
Sets 01:50:14 0° 98° (E) 4,669 6.4 -52.0°
